STARLINK-35951

Last updated on Wed Dec 31 2025 00:02:06 GMT+0000 (Coordinated Universal Time)

1 66619U 25271C 25364.58475317 .00090814 00000+0 22554-2 0 9996 2 66619 53.1597 102.5384 0001335 77.3721 282.7433 15.39593273 6969
UTC large
Height (km)
Speed (km/s)
/
Latitude / Longitude
Inclination (degrees)
Orbital Period (minutes)
Azimuth
Elevation
Range (km)
Doppler Factor

Next 0 passes for location: London (51.5072 / 0.1276)

Sorry there are no passes over London.